ATLAS 5 CENTAUR R/B (43227 NORAD) Tracking and Keplerian Element Data

This shows tracking and keplerian element data for the satellite.

Feedback or suggestion? Click here.




ElementValue
Catalog43227
NameATLAS 5 CENTAUR R/B
Epoch Orbit47
Epoch Day86.08404288
Epoch Year2018
RAAN334.0213
Inclination9.7366
Eccentricity0.4935426
Argument of Perigee183.1636
Mean Anonmoly171.7299
Mean Motion1.88626308
Decay Rate-1.8E-06
L11 43227U 18022B 18086.08404288 -.00000180 00000-0 00000-0 0 9998
L22 43227 9.7366 334.0213 4935426 183.1636 171.7299 1.88626308 477

Live tracking and technical data element details for ATLAS 5 CENTAUR R/B (NORAD 43227). ATLAS 5 CENTAUR R/B can be tracked NOW for your location showing map with azimuth and elevation plus other details from your city location.

Track the satellite on the map from your city or location and see movement details for azimuth, elevation, latitude, longitude, range, height, and movement on the map or in text.







IsCatalogInMostPopularTable: catalog: 43227, numindb: 90
Update: records affected: 1



GetName: 43227 ATLAS 5 CENTAUR R/B

Hit Count: updated at: Tue, 13 Nov 2018 06:36:07 GMT